Litchfield, IL

10:22 PM CDT on September 28, 2016 (GMT -0500)
Litchfield

Weather History for K3LF - October, 2012

Change the Weather History Date:

Saturday, October 20, 2012

  Actual Average (KSPI) Record (KSPI)
Temperature  
Mean Temperature 53 °F 54 °F  
Max Temperature 59 °F 65 °F 87 °F (2003)
Min Temperature 47 °F 43 °F 24 °F (1964)
Degree Days  
Heating Degree Days 12 12  
Month to date heating degree days 181  
Since 1 July heating degree days 262  
Cooling Degree Days 0 0  
Month to date cooling degree days 19  
Year to date cooling degree days 1118  
Growing Degree Days 3 (Base 50)    
Moisture  
Dew Point 45 °F    
Average Humidity 82    
Maximum Humidity 92    
Minimum Humidity 62    
Precipitation  
Precipitation 0.03 in 0.10 in 1.68 in (2005)
Month to date precipitation 2.00  
Year to date precipitation 30.55  
Snow  
Snow 0.00 in 0.00 in 1.10 in (1916)
Month to date snowfall 0.0  
Since 1 July snowfall 0.0  
Since 1 September snowfall 0.0  
Snow Depth -    
Sea Level Pressure  
Sea Level Pressure 29.87 in    
Wind  
Wind Speed 7 mph (WSW)    
Max Wind Speed 12 mph    
Max Gust Speed 18 mph    
Visibility 10 miles    
Events      
T = Trace of Precipitation, MM = Missing Value Source: NWS Daily Summary

Daily Weather History Graph

Daily Weather History Graph

Search for Another Location

Airport or City:

Trip Planner

Search our weather history database for the weather conditions in past years. The results will help you decide how hot, cold, wet, or windy it might be!

Date:

Astronomy

Oct. 20, 2012 Rise Set
Actual Time 7:13 AM CDT 6:12 PM CDT
Civil Twilight 6:46 AM CDT 6:39 PM CDT
Nautical Twilight 6:15 AM CDT 7:10 PM CDT
Astronomical Twilight 5:44 AM CDT 7:41 PM CDT
Moon 12:48 PM CDT (10/20) 10:59 PM CDT (10/20)
Length of Visible Light 11h 52m
Length of Day
10h 58m
Waxing Crescent, 34% of the Moon is Illuminated
Oct 20
Waxing Crescent
Oct 21
First Quarter
Oct 29
Full
Nov 6
Last Quarter
Nov 13
New

Hourly Weather History & Observations

Time (CDT) Temp. Dew Point Humidity Pressure Visibility Wind Dir Wind Speed Gust Speed Precip Events Conditions
12:15 AM 48.9 °F 45.1 °F 87% 29.77 in 10.0 mi WSW 10.4 mph - N/A   Overcast
12:35 AM 48.9 °F 45.0 °F 86% 29.77 in 10.0 mi WSW 10.4 mph - N/A   Overcast
12:55 AM 48.6 °F 45.3 °F 89% 29.78 in 7.0 mi West 11.5 mph 18.4 mph N/A   Overcast
1:15 AM 48.0 °F 45.5 °F 91% 29.78 in 5.0 mi West 9.2 mph - N/A   Overcast
1:35 AM 47.8 °F 45.5 °F 92% 29.78 in 10.0 mi West 9.2 mph - N/A   Overcast
1:55 AM 47.7 °F 45.1 °F 91% 29.78 in 10.0 mi West 9.2 mph - N/A   Mostly Cloudy
2:15 AM 47.1 °F 44.8 °F 92% 29.79 in 10.0 mi West 6.9 mph - N/A   Mostly Cloudy
2:35 AM 47.5 °F 45.1 °F 92% 29.79 in 10.0 mi West 8.1 mph - N/A   Overcast
2:55 AM 47.7 °F 45.0 °F 90% 29.79 in 10.0 mi West 6.9 mph - N/A   Overcast
3:15 AM 47.7 °F 45.1 °F 91% 29.79 in 10.0 mi West 6.9 mph - N/A   Overcast
3:55 AM 47.5 °F 45.0 °F 91% 29.79 in 10.0 mi West 6.9 mph - N/A   Overcast
4:15 AM 47.5 °F 44.8 °F 90% 29.79 in 10.0 mi West 5.8 mph - N/A   Overcast
5:15 AM 47.8 °F 45.0 °F 90% 29.81 in 10.0 mi West 5.8 mph - N/A   Overcast
5:35 AM 47.8 °F 45.1 °F 90% 29.81 in 10.0 mi West 4.6 mph - N/A   Overcast
5:55 AM 48.2 °F 45.0 °F 89% 29.82 in 10.0 mi WSW 4.6 mph - N/A   Overcast
6:15 AM 48.2 °F 44.6 °F 87% 29.83 in 10.0 mi West 5.8 mph - N/A   Overcast
6:35 AM 48.2 °F 45.0 °F 89% 29.83 in 10.0 mi West 4.6 mph - N/A   Overcast
6:55 AM 48.2 °F 45.1 °F 89% 29.84 in 10.0 mi West 4.6 mph - N/A   Overcast
7:15 AM 48.2 °F 45.1 °F 89% 29.85 in 10.0 mi West 3.5 mph - N/A   Overcast
7:35 AM 48.2 °F 45.0 °F 89% 29.86 in 10.0 mi West 4.6 mph - N/A   Overcast
7:55 AM 48.4 °F 45.0 °F 88% 29.86 in 10.0 mi West 3.5 mph - N/A   Overcast
8:15 AM 48.7 °F 45.0 °F 87% 29.87 in 10.0 mi West 4.6 mph - N/A   Overcast
8:35 AM 48.7 °F 44.4 °F 85% 29.88 in 10.0 mi West 4.6 mph - N/A   Overcast
8:55 AM 49.1 °F 44.6 °F 84% 29.88 in 10.0 mi West 5.8 mph - N/A   Overcast
9:15 AM 49.5 °F 44.2 °F 82% 29.90 in 10.0 mi WNW 5.8 mph - N/A   Overcast
9:35 AM 49.5 °F 44.2 °F 82% 29.90 in 10.0 mi WSW 5.8 mph - N/A   Overcast
9:55 AM 49.6 °F 44.8 °F 83% 29.90 in 10.0 mi WSW 6.9 mph - N/A   Overcast
10:15 AM 50.9 °F 44.8 °F 80% 29.90 in 10.0 mi WSW 9.2 mph - N/A   Overcast
10:35 AM 50.9 °F 44.4 °F 78% 29.91 in 10.0 mi WSW 9.2 mph - N/A   Overcast
11:15 AM 51.1 °F 44.6 °F 78% 29.92 in 10.0 mi West 6.9 mph - N/A   Overcast
11:55 AM 52.5 °F 44.4 °F 74% 29.91 in 10.0 mi West 4.6 mph - N/A   Overcast
12:15 PM 52.9 °F 45.0 °F 74% 29.90 in 10.0 mi Calm Calm - N/A   Overcast
12:35 PM 53.1 °F 45.0 °F 74% 29.90 in 10.0 mi West 4.6 mph - N/A   Overcast
12:55 PM 54.7 °F 45.1 °F 70% 29.90 in 10.0 mi West 4.6 mph - 0.01 in   Mostly Cloudy
1:15 PM 55.4 °F 45.5 °F 69% 29.89 in 10.0 mi WNW 4.6 mph - N/A   Mostly Cloudy
1:35 PM 55.6 °F 45.3 °F 68% 29.89 in 10.0 mi North 3.5 mph - N/A   Mostly Cloudy
1:55 PM 56.3 °F 46.6 °F 70% 29.88 in 10.0 mi NNW 4.6 mph - N/A   Overcast
2:15 PM 55.9 °F 45.7 °F 68% 29.88 in 10.0 mi WSW 6.9 mph - N/A   Overcast
2:35 PM 57.0 °F 45.3 °F 65% 29.89 in 10.0 mi West 5.8 mph - N/A   Overcast
2:55 PM 58.3 °F 46.2 °F 64% 29.89 in 10.0 mi Calm Calm - N/A   Overcast
3:35 PM 57.9 °F 45.3 °F 63% 29.88 in 10.0 mi WSW 4.6 mph - N/A   Mostly Cloudy
3:55 PM 57.2 °F 45.5 °F 65% 29.88 in 10.0 mi Calm Calm - N/A   Mostly Cloudy
4:15 PM 59.5 °F 46.8 °F 63% 29.88 in 10.0 mi Calm Calm - N/A   Mostly Cloudy
4:35 PM 58.5 °F 46.4 °F 64% 29.88 in 10.0 mi SE 3.5 mph - N/A   Scattered Clouds
4:55 PM 59.5 °F 46.6 °F 62% 29.88 in 0.5 mi Calm Calm - 0.01 in   Haze
5:35 PM 57.6 °F 46.8 °F 67% 29.88 in 10.0 mi ENE 4.6 mph - N/A   Clear
5:55 PM 55.9 °F 46.6 °F 71% 29.89 in 10.0 mi East 5.8 mph - N/A   Clear
6:15 PM 53.8 °F 46.4 °F 76% 29.89 in 10.0 mi East 6.9 mph - N/A   Clear
6:35 PM 52.5 °F 46.2 °F 79% 29.88 in 10.0 mi East 6.9 mph - N/A   Clear
6:55 PM 52.2 °F 46.4 °F 81% 29.88 in 10.0 mi East 8.1 mph - N/A   Clear
7:15 PM 51.3 °F 46.2 °F 83% 29.89 in 10.0 mi East 6.9 mph - N/A   Clear
7:35 PM 50.5 °F 46.2 °F 85% 29.90 in 10.0 mi East 6.9 mph - N/A   Clear
7:55 PM 50.0 °F 46.0 °F 86% 29.90 in 10.0 mi East 6.9 mph - N/A   Clear
8:15 PM 49.3 °F 45.9 °F 88% 29.90 in 10.0 mi ESE 8.1 mph - N/A   Clear
8:55 PM 49.1 °F 45.7 °F 88% 29.91 in 10.0 mi ESE 6.9 mph - N/A   Clear
9:15 PM 49.5 °F 45.9 °F 87% 29.92 in 10.0 mi ESE 6.9 mph - N/A   Clear
9:35 PM 49.1 °F 45.7 °F 88% 29.92 in 10.0 mi ESE 9.2 mph - N/A   Clear
9:55 PM 49.1 °F 45.5 °F 87% 29.92 in 10.0 mi ESE 8.1 mph - 0.01 in   Clear
10:15 PM 49.1 °F 45.5 °F 87% 29.92 in 10.0 mi ESE 8.1 mph - N/A   Clear
10:55 PM 48.6 °F 45.5 °F 89% 29.93 in 10.0 mi SE 9.2 mph - N/A   Clear
11:15 PM 48.2 °F 45.3 °F 90% 29.93 in 10.0 mi SE 8.1 mph - N/A   Clear
11:35 PM 48.4 °F 45.5 °F 90% 29.92 in 10.0 mi SE 9.2 mph - N/A   Clear
11:55 PM 48.2 °F 45.3 °F 90% 29.93 in 10.0 mi SE 10.4 mph - N/A   Clear